CW8968 Weather Reports


time (UTC)temp
C
wind
direction
speed
KPH
gust
KPH
rain 1hr
cm
rain 24hr
cm
rain mn
cm
humidity
%
barometer
mb
20260507073605 11 53 16.1 25.7 0.00 0.00 0.00 87 1009.3
20260507073100 11 38 16.1 25.7 0.00 0.00 0.00 87 1009.4
20260507072557 11 34 16.1 25.7 0.00 0.00 0.00 89 1009.3
20260507072326 11 30 14.5 22.5 0.00 0.00 0.00 89 1009.3
20260507071557 10 24 16.1 32.2 0.00 0.00 0.00 89 1009.1
20260507071053 10 31 16.1 32.2 0.00 0.00 0.00 88 1009.2
20260507070553 10 11 14.5 27.4 0.00 0.00 0.00 89 1009.1
20260507070052 10 19 14.5 27.4 0.00 0.00 0.00 90 1009.3
20260507065551 10 49 16.1 25.7 0.00 0.00 0.00 90 1009.2
20260507065049 10 49 14.5 24.1 0.00 0.00 0.00 91 1009.0
20260507064549 10 18 12.9 24.1 0.00 0.00 0.00 92 1009.1
20260507064321 10 29 11.3 17.7 0.00 0.00 0.00 92 1009.1
20260507063549 9 30 14.5 25.7 0.00 0.00 0.00 92 1009.0
20260507063049 9 20 19.3 27.4 0.00 0.00 0.00 92 1009.1
20260507062550 8 24 19.3 27.4 0.00 0.00 0.00 92 1009.0
20260507062045 8 5 16.1 25.7 0.00 0.00 0.00 92 1009.1
20260507061816 8 13 14.5 25.7 0.00 0.00 0.00 93 1008.9
20260507061042 8 25 17.7 24.1 0.00 0.00 0.00 93 1008.9
20260507060543 8 21 17.7 24.1 0.00 0.00 0.00 93 1008.6
20260507060041 8 10 16.1 22.5 0.00 0.00 0.00 92 1008.6
20260507055542 7 5 16.1 22.5 0.00 0.00 0.00 92 1008.8
20260507055041 7 5 16.1 22.5 0.00 0.00 0.00 93 1008.5
20260507054544 7 26 12.9 22.5 0.00 0.00 0.00 93 1008.6
20260507054041 7 0 11.3 19.3 0.00 0.00 0.00 93 1008.7
20260507053543 7 5 11.3 19.3 0.00 0.00 0.00 93 1008.7
20260507053041 7 9 9.7 19.3 0.00 0.00 0.00 93 1008.6
20260507052541 7 5 11.3 19.3 0.00 0.00 0.00 93 1008.4
20260507052043 6 5 11.3 19.3 0.00 0.00 0.00 93 1008.3
20260507051539 6 0 11.3 19.3 0.00 0.00 0.00 94 1008.3
20260507051039 6 5 11.3 17.7 0.00 0.00 0.00 94 1008.3
20260507050538 6 0 12.9 20.9 0.00 0.00 0.00 94 1008.2
20260507050040 6 0 11.3 22.5 0.00 0.00 0.00 94 1008.1
20260507045538 6 0 9.7 22.5 0.00 0.00 0.00 94 1008.3
20260507045039 6 0 9.7 22.5 0.00 0.00 0.00 94 1008.3
20260507044539 5 5 9.7 22.5 0.00 0.00 0.00 94 1008.1
20260507044031 5 355 9.7 20.9 0.00 0.00 0.00 94 1007.9
20260507043523 5 15 9.7 20.9 0.00 0.00 0.00 94 1008.2
20260507043022 5 355 8.0 16.1 0.00 0.00 0.00 94 1007.9
20260507042522 5 355 8.0 16.1 0.00 0.00 0.00 94 1007.9
20260507042021 5 0 6.4 14.5 0.00 0.00 0.00 94 1007.9
20260507041523 5 5 6.4 16.1 0.00 0.00 0.00 94 1007.8
20260507041021 5 355 6.4 16.1 0.00 0.00 0.00 94 1007.7
20260507040521 5 0 4.8 12.9 0.00 0.00 0.00 94 1007.8
20260507040022 5 22 4.8 11.3 0.00 0.00 0.00 94 1007.8
20260507035521 5 15 4.8 16.1 0.00 0.00 0.00 94 1007.6
20260507035017 5 5 6.4 16.1 0.00 0.00 0.00 94 1007.7
20260507034503 5 346 6.4 17.7 0.00 0.00 0.00 94 1007.7
20260507033954 4 5 6.4 19.3 0.00 0.00 0.00 94 1007.7
20260507033453 4 355 3.2 19.3 0.00 0.00 0.00 94 1007.6
20260507032954 4 5 1.6 9.7 0.00 0.00 0.00 93 1007.6
20260507032452 4 5 3.2 14.5 0.00 0.00 0.00 93 1007.6
20260507031950 4 5 6.4 17.7 0.00 0.00 0.00 93 1007.5
20260507031450 4 9 8.0 17.7 0.00 0.00 0.00 93 1007.4
20260507030950 4 13 8.0 16.1 0.00 0.00 0.00 93 1007.6
20260507030452 4 10 8.0 14.5 0.00 0.00 0.00 93 1007.5
20260507025951 4 13 8.0 14.5 0.00 0.00 0.00 92 1007.4
20260507025450 5 13 8.0 17.7 0.00 0.00 0.00 93 1007.3
20260507025222 5 5 9.7 19.3 0.00 0.00 0.00 93 1007.4
20260507024451 5 5 8.0 19.3 0.00 0.00 0.00 93 1007.3
20260507023951 5 355 9.7 19.3 0.00 0.00 0.00 93 1007.4
20260507023451 5 0 9.7 19.3 0.00 0.00 0.00 93 1007.3
20260507023222 5 12 8.0 19.3 0.00 0.00 0.00 93 1007.5
20260507022452 5 5 8.0 22.5 0.00 0.00 0.00 93 1007.4
20260507021950 5 342 8.0 22.5 0.00 0.00 0.00 93 1007.3
20260507021442 5 355 9.7 19.3 0.00 0.00 0.00 93 1007.2
20260507021212 5 355 9.7 19.3 0.00 0.00 0.00 93 1007.0
20260507020440 5 5 9.7 22.5 0.00 0.00 0.00 93 1007.4
20260507015940 5 11 11.3 22.5 0.00 0.00 0.00 94 1007.4
20260507015441 5 355 9.7 19.3 0.00 0.00 0.00 94 1007.2
20260507014939 5 355 8.0 16.1 0.00 0.00 0.00 94 1007.2
20260507014439 5 11 8.0 16.1 0.00 0.00 0.00 94 1006.9
20260507013942 5 9 8.0 17.7 0.00 0.00 0.00 94 1007.0
20260507013447 5 0 6.4 17.7 0.00 0.00 0.00 94 1007.0
20260507012939 5 5 6.4 19.3 0.00 0.00 0.00 94 1007.0
20260507012440 5 0 6.4 19.3 0.00 0.00 0.00 95 1007.0
20260507011942 4 355 3.2 14.5 0.00 0.00 0.00 94 1007.1
20260507011938 4 12 4.8 19.3 0.00 0.00 0.00 94 1007.0
20260507010941 4 355 1.6 9.7 0.00 0.00 0.00 93 1006.8
20260507010439 4 355 0.0 6.4 0.00 0.00 0.00 93 1006.8
20260507005935 4 355 0.0 3.2 0.00 0.00 0.00 93 1006.9
20260507005432 4 355 0.0 6.4 0.00 0.00 0.00 93 1006.9
20260507004931 4 355 0.0 6.4 0.00 0.00 0.00 93 1006.8
20260507004430 5 355 0.0 0.0 0.00 0.00 0.00 93 1006.9
20260507003929 5 355 0.0 6.4 0.00 0.00 0.00 93 1006.8
20260507003428 5 355 0.0 6.4 0.00 0.00 0.00 93 1006.7
20260507002926 5 355 0.0 14.5 0.00 0.00 0.00 93 1007.0
20260507002426 5 355 1.6 14.5 0.00 0.00 0.00 93 1006.9
20260507001926 5 355 1.6 12.9 0.00 0.00 0.00 93 1006.8
20260507001433 5 0 0.0 6.4 0.00 0.00 0.00 93 1006.7
20260507001428 5 355 1.6 12.9 0.00 0.00 0.00 93 1006.9
20260507000427 5 0 0.0 11.3 0.00 0.00 0.00 93 1006.9
20260506235926 5 0 1.6 11.3 0.00 0.00 0.00 92 1006.8
20260506235427 5 0 1.6 8.0 0.00 0.00 0.00 92 1006.9
20260506234925 5 0 0.0 8.0 0.00 0.00 0.00 92 1006.8
20260506234658 5 9 0.0 3.2 0.00 0.00 0.00 92 1006.9
20260506233916 5 9 1.6 8.0 0.00 0.00 0.00 92 1006.8
20260506233415 6 9 1.6 11.3 0.00 0.00 0.00 92 1006.8
20260506232913 6 9 3.2 11.3 0.00 0.00 0.00 92 1006.8
20260506232647 6 5 6.4 12.9 0.00 0.00 0.00 92 1006.8
20260506231914 6 9 8.0 17.7 0.00 0.00 0.00 92 1006.7
20260506231412 6 355 8.0 17.7 0.00 0.00 0.00 92 1006.7
20260506230915 6 0 8.0 16.1 0.00 0.00 0.00 92 1006.8
20260506230406 6 0 9.7 16.1 0.00 0.00 0.00 92 1006.8
20260506225858 6 0 9.7 16.1 0.00 0.00 0.00 92 1007.0
20260506225354 6 0 9.7 17.7 0.00 0.00 0.00 92 1006.8
20260506225127 6 5 9.7 17.7 0.00 0.00 0.00 91 1006.7
20260506224354 6 5 9.7 17.7 0.00 0.00 0.00 91 1006.5
20260506223853 6 9 11.3 16.1 0.00 0.00 0.00 91 1006.7
20260506223350 6 5 11.3 20.9 0.00 0.00 0.00 91 1006.7
20260506223121 6 21 11.3 20.9 0.00 0.00 0.00 91 1006.7
20260506222350 6 20 12.9 22.5 0.00 0.00 0.00 90 1006.6
20260506221850 6 11 11.3 22.5 0.00 0.00 0.00 90 1006.6
20260506221351 6 0 11.3 22.5 0.00 0.00 0.00 90 1007.0
20260506220850 7 0 11.3 19.3 0.00 0.00 0.00 90 1006.7
20260506220352 7 0 9.7 19.3 0.00 0.00 0.00 90 1006.6
20260506215850 7 0 9.7 17.7 0.00 0.00 0.00 89 1006.6
20260506215350 7 9 11.3 19.3 0.00 0.00 0.00 89 1006.6
20260506214851 7 5 12.9 22.5 0.00 0.00 0.00 88 1006.8
20260506214355 7 5 16.1 27.4 0.00 0.00 0.00 88 1006.7
20260506213853 7 10 17.7 27.4 0.00 0.00 0.00 88 1006.5
20260506213625 7 0 12.9 27.4 0.00 0.00 0.00 88 1006.6
20260506212850 8 5 12.9 25.7 0.00 0.00 0.00 88 1006.5
20260506212616 8 17 14.5 25.7 0.00 0.00 0.00 88 1006.4
20260506211841 8 11 14.5 25.7 0.00 0.00 0.00 88 1006.4
20260506211341 8 9 16.1 29.0 0.00 0.00 0.00 87 1006.1
20260506210845 8 0 17.7 32.2 0.00 0.00 0.00 87 1006.3
20260506210841 8 5 17.7 32.2 0.00 0.00 0.00 87 1006.3
20260506205840 8 9 17.7 27.4 0.00 0.00 0.00 87 1006.3
20260506205340 8 0 16.1 25.7 0.00 0.00 0.00 87 1006.4
20260506204840 8 0 12.9 25.7 0.00 0.00 0.00 87 1006.5
20260506204341 8 14 11.3 22.5 0.00 0.00 0.00 86 1006.1
20260506203840 8 15 11.3 20.9 0.00 0.00 0.00 86 1006.4
20260506203339 8 9 11.3 19.3 0.00 0.00 0.00 85 1006.1
20260506202840 8 12 11.3 22.5 0.00 0.00 0.00 85 1006.2
20260506202340 9 5 12.9 22.5 0.00 0.00 0.00 84 1006.1
20260506201842 9 9 14.5 25.7 0.00 0.00 0.00 83 1006.2
20260506201340 9 13 14.5 27.4 0.00 0.00 0.00 83 1006.2
20260506200842 9 22 12.9 27.4 0.00 0.00 0.00 83 1006.1
20260506200341 9 9 12.9 22.5 0.00 0.00 0.00 83 1006.1
20260506195842 9 5 17.7 25.7 0.00 0.00 0.00 83 1006.1
20260506195339 9 0 19.3 37.0 0.00 0.00 0.00 83 1005.8
20260506194839 9 350 14.5 37.0 0.00 0.00 0.00 83 1005.9
20260506194354 9 19 9.7 19.3 0.00 0.00 0.00 83 1005.8
20260506194350 9 16 9.7 22.5 0.00 0.00 0.00 83 1005.8
20260506193340 10 30 11.3 20.9 0.00 0.00 0.00 82 1006.0
20260506192834 10 22 14.5 27.4 0.00 0.00 0.00 82 1005.7
20260506192323 10 26 17.7 27.4 0.00 0.00 0.00 82 1005.8
20260506191824 10 19 19.3 32.2 0.00 0.00 0.00 81 1005.8
20260506191547 10 10 22.5 32.2 0.00 0.00 0.00 81 1005.6
20260506191044 10 25 24.1 32.2 0.00 0.00 0.00 80 1005.5
20260506190319 10 28 22.5 41.8 0.00 0.00 0.00 80 1005.6
20260506185755 10 5 22.5 37.0 0.00 0.00 0.00 80 1005.6
20260506185251 10 5 24.1 38.6 0.00 0.00 0.00 80 1005.4
20260506184746 11 26 22.5 38.6 0.00 0.00 0.00 80 1005.1
20260506184240 11 17 16.1 30.6 0.00 0.00 0.00 80 1005.4
20260506183740 11 16 11.3 30.6 0.00 0.00 0.00 81 1005.2
20260506183240 11 5 6.4 19.3 0.00 0.00 0.00 80 1005.2
20260506182740 11 57 1.6 14.5 0.00 0.00 0.00 81 1005.1
20260506182238 11 57 0.0 6.4 0.00 0.00 0.00 81 1005.1
20260506181737 11 57 1.6 6.4 0.00 0.00 0.00 81 1005.1
20260506181234 11 57 1.6 6.4 0.00 0.00 0.00 81 1005.0
20260506180733 11 57 1.6 6.4 0.00 0.00 0.00 81 1004.8
20260506180231 11 57 3.2 8.0 0.00 0.00 0.00 80 1004.8
20260506180000 11 57 4.8 8.0 0.00 0.00 0.00 79 1004.5
20260506175232 11 57 3.2 8.0 0.00 0.00 0.00 78 1004.6
20260506174730 11 57 3.2 8.0 0.00 0.00 0.00 78 1004.5
20260506174231 11 57 4.8 11.3 0.00 0.00 0.00 78 1004.6
20260506173727 11 57 4.8 11.3 0.00 0.00 0.00 78 1004.3
20260506173227 11 57 4.8 14.5 0.00 0.00 0.00 77 1004.4
20260506172726 11 57 6.4 14.5 0.00 0.00 0.00 77 1004.8
20260506172228 11 58 4.8 12.9 0.00 0.00 0.00 77 1004.5
20260506171956 11 58 4.8 11.3 0.00 0.00 0.00 76 1004.3
20260506171231 11 58 6.4 4.8 0.00 0.00 0.00 76 1004.4
20260506171015 11 58 6.4 3.2 0.00 0.00 0.00 77 1004.2
20260506170631 11 0.0 0.0 0.00 0.00 0.00 76 1004.5
20260506165445 -17 0.0 0.0 0.00 0.00 0.00 1004.4
20260506165130 11 64 6.4 16.1 0.00 0.00 0.00 76
20260506164358 11 82 4.8 14.5 0.00 0.00 0.00 77
20260506163858 11 82 6.4 14.5 0.00 0.00 0.00 76
20260506163357 11 82 4.8 11.3 0.00 0.00 0.00 76
20260506162856 11 57 3.2 11.3 0.00 0.00 0.00 77
20260506162356 11 55 4.8 12.9 0.00 0.00 0.00 77
20260506161856 11 55 8.0 19.3 0.00 0.00 0.00 77
20260506161354 12 55 8.0 19.3 0.00 0.00 0.00 78
20260506160852 11 59 8.0 17.7 0.00 0.00 0.00 77
20260506160353 11 70 9.7 22.5 0.00 0.00 0.00 75
20260506155853 11 57 8.0 22.5 0.00 0.00 0.00 76
20260506155352 11 46 6.4 17.7 0.00 0.00 0.00 76
20260506154853 11 68 8.0 22.5 0.00 0.00 0.00 76
20260506154352 11 100 8.0 22.5 0.00 0.00 0.00 75
20260506153855 11 82 8.0 16.1 0.00 0.00 0.00 75
20260506153351 11 78 9.7 24.1 0.00 0.00 0.00 75
20260506152850 11 71 12.9 27.4 0.00 0.00 0.00 75
20260506152352 11 67 16.1 32.2 0.00 0.00 0.00 74
20260506151850 12 78 16.1 32.2 0.00 0.00 0.00 74
20260506151350 12 55 14.5 29.0 0.00 0.00 0.00 74
20260506150850 12 62 12.9 27.4 0.00 0.00 0.00 74
20260506150349 12 70 14.5 27.4 0.00 0.00 0.00 75
20260506150122 12 47 17.7 29.0 0.00 0.00 0.00 76
20260506150118 12 78 16.1 27.4 0.00 0.00 0.00 75
20260506144841 11 49 20.9 32.2 0.00 0.00 0.00 75
20260506144340 12 73 19.3 32.2 0.00 0.00 0.00 75
20260506143842 12 74 16.1 37.0 0.00 0.00 0.00 76
20260506143341 12 88 17.7 37.0 0.00 0.00 0.00 76
20260506142840 11 78 19.3 33.8 0.00 0.00 0.00 75
20260506142340 11 66 20.9 37.0 0.00 0.00 0.00 75
20260506141846 11 69 19.3 37.0 0.00 0.00 0.00 75
20260506141840 11 48 19.3 37.0 0.00 0.00 0.00 76
20260506141109 11 55 17.7 37.0 0.00 0.00 0.00 75
20260506140338 11 63 16.1 29.0 0.00 0.00 0.00 75
20260506135839 11 46 16.1 33.8 0.00 0.00 0.00 75
20260506135336 11 55 19.3 33.8 0.00 0.00 0.00 75
20260506134836 11 48 17.7 37.0 0.00 0.00 0.00 75
20260506134336 11 74 17.7 37.0 0.00 0.00 0.00 74
20260506134105 11 57 17.7 30.6 0.00 0.00 0.00 74
20260506133328 11 60 19.3 32.2 0.00 0.00 0.00 75
20260506132820 11 59 20.9 37.0 0.00 0.00 0.00 75
20260506132316 11 52 16.1 37.0 0.00 0.00 0.00 76
20260506131816 11 55 12.9 32.2 0.00 0.00 0.00 75
20260506131317 11 69 12.9 32.2 0.00 0.00 0.00 75
20260506130816 11 90 12.9 27.4 0.00 0.00 0.00 73
20260506130317 11 66 16.1 40.2 0.00 0.00 0.00 73
20260506125815 11 58 17.7 40.2 0.00 0.00 0.00 72
20260506125544 11 57 14.5 37.0 0.00 0.00 0.00 72
20260506124813 11 72 16.1 37.0 0.00 0.00 0.00 72
20260506124544 11 51 20.9 43.5 0.00 0.00 0.00 74
20260506123813 11 59 22.5 48.3 0.00 0.00 0.00 71
20260506123540 11 65 24.1 48.3 0.00 0.00 0.00 71
20260506122810 11 71 25.7 49.9 0.00 0.00 0.00 71
20260506122310 11 42 27.4 49.9 0.00 0.00 0.00 71
20260506121809 11 68 32.2 54.7 0.00 0.00 0.00 74
20260506121308 11 36 32.2 54.7 0.00 0.00 0.00 74
20260506120811 11 38 30.6 45.1 0.00 0.00 0.00 73
20260506120259 11 51 27.4 45.1 0.00 0.00 0.00 75
20260506115751 11 38 22.5 38.6 0.00 0.00 0.00 76
20260506115242 11 62 20.9 43.5 0.00 0.00 0.00 77
20260506114737 11 70 24.1 43.5 0.00 0.00 0.00 77
20260506114502 11 61 27.4 43.5 0.00 0.00 0.00 77
20260506113719 11 55 25.7 43.5 0.00 0.00 0.00 77
20260506113216 11 48 22.5 43.5 0.00 0.00 0.00 76
20260506112710 11 67 22.5 40.2 0.00 0.00 0.00 76
20260506112433 11 44 22.5 33.8 0.00 0.00 0.00 77
20260506111651 11 58 19.3 35.4 0.00 0.00 0.00 76
20260506111150 11 28 24.1 41.8 0.00 0.00 0.00 76
20260506110636 10 44 24.1 41.8 0.00 0.00 0.00 75
20260506110125 10 46 24.1 38.6 0.00 0.00 0.00 75
20260506105616 10 42 25.7 38.6 0.00 0.00 0.00 74
20260506105117 10 78 27.4 46.7 0.00 0.00 0.00 76
20260506104616 10 63 27.4 46.7 0.00 0.00 0.00 75
20260506104116 10 54 25.7 43.5 0.00 0.00 0.00 76
20260506103616 10 57 27.4 43.5 0.00 0.00 0.00 75
20260506103346 10 24 27.4 43.5 0.00 0.00 0.00 75
20260506102846 10 61 30.6 48.3 0.00 0.00 0.00 74
20260506102115 10 51 33.8 56.3 0.00 0.03 0.00 74
20260506101618 10 53 32.2 56.3 0.00 0.03 0.00 74
20260506101112 10 61 30.6 48.3 0.00 0.03 0.00 74
20260506100611 10 43 30.6 51.5 0.00 0.03 0.00 74
20260506100119 10 47 30.6 51.5 0.00 0.03 0.00 74
20260506095842 10 50 30.6 48.3 0.00 0.03 0.00 74
20260506095112 10 61 29.0 43.5 0.00 0.03 0.00 75
20260506094612 10 43 29.0 46.7 0.00 0.03 0.00 74
20260506094111 10 52 29.0 49.9 0.00 0.03 0.00 73
20260506093613 10 52 32.2 53.1 0.00 0.03 0.00 73
20260506093113 10 51 32.2 53.1 0.00 0.03 0.00 72
20260506092607 10 62 29.0 48.3 0.00 0.03 0.00 73
20260506092108 10 42 24.1 48.3 0.00 0.03 0.00 73
20260506091607 10 39 25.7 45.1 0.00 0.03 0.00 76
20260506091109 10 28 27.4 45.1 0.00 0.03 0.00 74
20260506090607 10 32 24.1 38.6 0.00 0.03 0.00 76
20260506090107 10 23 25.7 38.6 0.00 0.03 0.00 75
20260506085608 10 32 27.4 41.8 0.00 0.03 0.00 76
20260506085340 10 40 27.4 43.5 0.00 0.03 0.00 75
20260506084609 10 26 27.4 43.5 0.00 0.03 0.00 76
20260506084102 10 59 27.4 46.7 0.00 0.03 0.00 77
20260506083551 10 47 24.1 46.7 0.00 0.03 0.00 78
20260506083053 10 0 22.5 41.8 0.00 0.03 0.00 78
20260506082552 10 49 22.5 41.8 0.00 0.03 0.00 79
20260506082051 10 35 22.5 38.6 0.00 0.03 0.00 79
20260506081552 10 28 25.7 54.7 0.00 0.03 0.00 81
20260506081053 10 28 27.4 54.7 0.00 0.03 0.00 79
20260506080552 10 44 25.7 45.1 0.00 0.03 0.00 80